Stündliche Wetter Abay (Syrdarinskiy rayon)

Heute, 17 Juni, Donnerstag

Zeit Temperatur Niederschläge Wind Luftdruck Luftfeuchtigkeit
00:00 +30°C° 0 mm 4 m/S 746 mmHg 16%
01:00 +29°C° 0 mm 4 m/S 746 mmHg 18%
02:00 +28°C° 0 mm 4 m/S 747 mmHg 18%
03:00 +28°C° 0 mm 4 m/S 747 mmHg 19%
04:00 +27°C° 0 mm 4 m/S 747 mmHg 20%
05:00 +29°C° 0 mm 4 m/S 747 mmHg 18%
06:00 +30°C° 0 mm 4 m/S 747 mmHg 17%
07:00 +33°C° 0 mm 5 m/S 747 mmHg 15%
08:00 +34°C° 0 mm 5 m/S 747 mmHg 14%
09:00 +36°C° 0 mm 5 m/S 747 mmHg 12%
10:00 +37°C° 0 mm 5 m/S 747 mmHg 11%
11:00 +39°C° 0 mm 5 m/S 747 mmHg 10%
12:00 +38°C° 0 mm 4 m/S 746 mmHg 10%
13:00 +40°C° 0 mm 4 m/S 746 mmHg 9%
14:00 +40°C° 0 mm 4 m/S 746 mmHg 10%
15:00 +40°C° 0 mm 4 m/S 746 mmHg 10%
16:00 +40°C° 0 mm 4 m/S 745 mmHg 10%
17:00 +38°C° 0 mm 4 m/S 745 mmHg 12%
18:00 +37°C° 0 mm 4 m/S 745 mmHg 13%
19:00 +36°C° 0 mm 3 m/S 745 mmHg 15%
20:00 +35°C° 0 mm 3 m/S 745 mmHg 16%
21:00 +34°C° 0 mm 3 m/S 745 mmHg 16%
22:00 +33°C° 0 mm 3 m/S 745 mmHg 17%
23:00 +31°C° 0 mm 3 m/S 745 mmHg 18%

Morgen, 18 Juni, Freitag

Zeit Temperatur Niederschläge Wind Luftdruck Luftfeuchtigkeit
00:00 +31°C° 0 mm 2 m/S 744 mmHg 19%
01:00 +30°C° 0 mm 2 m/S 744 mmHg 19%
02:00 +30°C° 0 mm 2 m/S 744 mmHg 20%
03:00 +29°C° 0 mm 2 m/S 744 mmHg 22%
04:00 +28°C° 0 mm 2 m/S 744 mmHg 23%
05:00 +30°C° 0 mm 2 m/S 744 mmHg 21%
06:00 +32°C° 0 mm 2 m/S 745 mmHg 19%
07:00 +35°C° 0 mm 2 m/S 745 mmHg 17%
08:00 +37°C° 0 mm 2 m/S 745 mmHg 15%
09:00 +38°C° 0 mm 2 m/S 744 mmHg 14%
10:00 +39°C° 0 mm 2 m/S 744 mmHg 13%
11:00 +40°C° 0 mm 3 m/S 744 mmHg 12%
12:00 +42°C° 0 mm 4 m/S 744 mmHg 10%
13:00 +42°C° 0 mm 5 m/S 744 mmHg 9%
14:00 +42°C° 0 mm 6 m/S 743 mmHg 9%
15:00 +44°C° 0 mm 6 m/S 743 mmHg 9%
16:00 +44°C° 0 mm 6 m/S 742 mmHg 9%
17:00 +41°C° 0 mm 7 m/S 742 mmHg 10%
18:00 +40°C° 0 mm 7 m/S 742 mmHg 12%
19:00 +39°C° 0 mm 7 m/S 742 mmHg 13%
20:00 +36°C° 0 mm 6 m/S 743 mmHg 18%
21:00 +35°C° 0 mm 5 m/S 743 mmHg 22%
22:00 +33°C° 0 mm 4 m/S 743 mmHg 27%
23:00 +30°C° 0 mm 6 m/S 744 mmHg 33%

übermorgen, 19 Juni, Samstag

Zeit Temperatur Niederschläge Wind Luftdruck Luftfeuchtigkeit
00:00 +29°C° 0 mm 9 m/S 744 mmHg 38%
01:00 +27°C° 0 mm 11 m/S 745 mmHg 44%
02:00 +26°C° 0 mm 10 m/S 745 mmHg 45%
03:00 +24°C° 0 mm 10 m/S 746 mmHg 45%
04:00 +23°C° 0 mm 9 m/S 747 mmHg 45%
05:00 +23°C° 0 mm 10 m/S 747 mmHg 41%
06:00 +22°C° 0 mm 10 m/S 748 mmHg 36%
07:00 +22°C° 0 mm 10 m/S 749 mmHg 31%
08:00 +23°C° 0 mm 10 m/S 749 mmHg 27%
09:00 +24°C° 0 mm 10 m/S 750 mmHg 23%
10:00 +26°C° 0 mm 10 m/S 750 mmHg 19%
11:00 +27°C° 0 mm 10 m/S 750 mmHg 17%
12:00 +28°C° 0 mm 10 m/S 750 mmHg 15%
13:00 +29°C° 0 mm 9 m/S 750 mmHg 14%
14:00 +29°C° 0 mm 9 m/S 750 mmHg 14%
15:00 +29°C° 0 mm 9 m/S 750 mmHg 14%
16:00 +29°C° 0 mm 8 m/S 750 mmHg 13%
17:00 +28°C° 0 mm 8 m/S 750 mmHg 14%
18:00 +28°C° 0 mm 8 m/S 750 mmHg 14%
19:00 +27°C° 0 mm 8 m/S 750 mmHg 15%
20:00 +26°C° 0 mm 7 m/S 751 mmHg 15%
21:00 +24°C° 0 mm 7 m/S 751 mmHg 16%
22:00 +23°C° 0 mm 6 m/S 752 mmHg 16%
23:00 +22°C° 0 mm 5 m/S 752 mmHg 18%

20 Juni, Sonntag

Zeit Temperatur Niederschläge Wind Luftdruck Luftfeuchtigkeit
00:00 +21°C° 0 mm 4 m/S 752 mmHg 19%
01:00 +20°C° 0 mm 4 m/S 752 mmHg 20%
02:00 +20°C° 0 mm 4 m/S 752 mmHg 22%
03:00 +19°C° 0 mm 4 m/S 752 mmHg 23%
04:00 +19°C° 0 mm 4 m/S 752 mmHg 24%
05:00 +20°C° 0 mm 4 m/S 752 mmHg 22%
06:00 +22°C° 0 mm 4 m/S 752 mmHg 20%
07:00 +25°C° 0 mm 4 m/S 752 mmHg 18%
08:00 +26°C° 0 mm 5 m/S 752 mmHg 18%
09:00 +27°C° 0 mm 5 m/S 752 mmHg 18%
10:00 +28°C° 0 mm 5 m/S 752 mmHg 17%
11:00 +29°C° 0 mm 5 m/S 751 mmHg 17%
12:00 +30°C° 0 mm 5 m/S 751 mmHg 17%
13:00 +32°C° 0 mm 5 m/S 751 mmHg 17%
14:00 +32°C° 0 mm 5 m/S 750 mmHg 17%
15:00 +33°C° 0 mm 5 m/S 750 mmHg 17%
16:00 +33°C° 0 mm 5 m/S 750 mmHg 17%
17:00 +32°C° 0 mm 5 m/S 750 mmHg 18%
18:00 +30°C° 0 mm 4 m/S 749 mmHg 20%
19:00 +30°C° 0 mm 3 m/S 749 mmHg 22%
20:00 +29°C° 0 mm 3 m/S 749 mmHg 24%
21:00 +28°C° 0 mm 2 m/S 749 mmHg 26%
22:00 +27°C° 0 mm 2 m/S 749 mmHg 29%
23:00 +26°C° 0 mm 2 m/S 749 mmHg 30%

21 Juni, Montag

Zeit Temperatur Niederschläge Wind Luftdruck Luftfeuchtigkeit
00:00 +26°C° 0 mm 3 m/S 748 mmHg 30%
01:00 +26°C° 0 mm 3 m/S 748 mmHg 31%
02:00 +25°C° 0 mm 4 m/S 748 mmHg 32%
03:00 +25°C° 0 mm 4 m/S 748 mmHg 33%
04:00 +23°C° 0 mm 5 m/S 748 mmHg 34%
05:00 +26°C° 0 mm 5 m/S 748 mmHg 34%
06:00 +27°C° 0 mm 5 m/S 748 mmHg 33%
07:00 +29°C° 0 mm 5 m/S 748 mmHg 32%
08:00 +30°C° 0 mm 6 m/S 748 mmHg 32%
09:00 +33°C° 0 mm 6 m/S 748 mmHg 31%
10:00 +34°C° 0 mm 7 m/S 748 mmHg 31%
11:00 +34°C° 0 mm 7 m/S 748 mmHg 32%
12:00 +34°C° 0 mm 7 m/S 747 mmHg 33%
13:00 +33°C° 0 mm 7 m/S 747 mmHg 34%
14:00 +34°C° 0 mm 8 m/S 747 mmHg 29%
15:00 +34°C° 0 mm 8 m/S 747 mmHg 25%
16:00 +35°C° 0 mm 8 m/S 747 mmHg 20%
17:00 +34°C° 0 mm 8 m/S 747 mmHg 17%
18:00 +32°C° 0 mm 8 m/S 748 mmHg 15%
19:00 +31°C° 0 mm 8 m/S 748 mmHg 13%
20:00 +28°C° 0 mm 7 m/S 748 mmHg 14%
21:00 +27°C° 0 mm 6 m/S 749 mmHg 15%
22:00 +26°C° 0 mm 5 m/S 749 mmHg 17%
23:00 +25°C° 0 mm 5 m/S 749 mmHg 18%

22 Juni, Dienstag

Zeit Temperatur Niederschläge Wind Luftdruck Luftfeuchtigkeit
00:00 +23°C° 0 mm 5 m/S 749 mmHg 20%
01:00 +22°C° 0 mm 5 m/S 749 mmHg 21%
02:00 +22°C° 0 mm 5 m/S 749 mmHg 24%
03:00 +21°C° 0 mm 5 m/S 750 mmHg 27%
04:00 +20°C° 0 mm 4 m/S 750 mmHg 30%
05:00 +21°C° 0 mm 5 m/S 751 mmHg 29%
06:00 +22°C° 0 mm 5 m/S 751 mmHg 29%
07:00 +23°C° 0 mm 6 m/S 751 mmHg 29%
08:00 +24°C° 0 mm 6 m/S 751 mmHg 27%
09:00 +26°C° 0 mm 6 m/S 752 mmHg 26%
10:00 +27°C° 0 mm 6 m/S 752 mmHg 24%
11:00 +28°C° 0 mm 6 m/S 752 mmHg 22%
12:00 +29°C° 0 mm 6 m/S 751 mmHg 20%
13:00 +30°C° 0 mm 6 m/S 751 mmHg 18%
14:00 +30°C° 0 mm 6 m/S 751 mmHg 17%
15:00 +30°C° 0 mm 6 m/S 751 mmHg 16%
16:00 +30°C° 0 mm 6 m/S 751 mmHg 16%
17:00 +30°C° 0 mm 5 m/S 751 mmHg 17%
18:00 +29°C° 0 mm 5 m/S 750 mmHg 18%
19:00 +28°C° 0 mm 4 m/S 750 mmHg 19%
20:00 +27°C° 0 mm 4 m/S 750 mmHg 20%
21:00 +26°C° 0 mm 4 m/S 750 mmHg 21%
22:00 +25°C° 0 mm 3 m/S 750 mmHg 22%
23:00 +24°C° 0 mm 3 m/S 750 mmHg 23%
Mehr zeigen

Wir brauchen deine Erlaubnis

Meteoprog und unser Service Anbieter werden persönliche Daten aufbewahren, so wie Cookies, Geräte Bezeichnung oder ähnliche Technologien von deinem Gerät und Prozess, so wie Persönliche Daten Inhalte und Werbungen, genauso wie social Media und den Verkehr zu analysieren.

  • Aufbewahrung und/oder Zugang zu deiner Geräte Informationen.

    Cookies, Geräte Bezeichnung oder andere Informationen, können aufbewahrt oder Zugang zu deinem Gerät erhalten, für den Grund, der oben angegeben wird.

  • Personalisierte Werbung und Inhalte, Messungen, Einblick in das Publikum und Produkt Entwicklung.

    Werbungen und Inhalte können personalisiert werden, basierend auf ein Profil. Mehr Daten können besser personalisierte Werbungen und Inhalte hinzufügen. Werbung und Inhalte können gezeigt und gemessen werden. Einblicke über das Publikum, welche die Werbung gesehen haben und den Inhalt, können abgeleitet werden. So wie Daten können genutzt werden, um es zu verbessern oder die Benutzer Erfahrung zu verbessern das System und die Software.

Wenn du “Ich stimme zu” klickst, erlaubst du uns, die Cookies zu benutzen die Geräte Bezeichnung, den Web oder ähnliche Technologien zu benutzen. Deine Settings, können in deinem Gerät bei deinem Browser geändert werden.

Für den bestimmten Zweck, berechtigten Interessen beruhen darauf, mehr als auf den Inhalt. Du kannst mehr darüber in unseren Privaten und Cookie Politik lesen.